Omaha, Nebraska, United States (68101)
Lat: 41.26N, Lon: 95.94W
Wx Zone: NEZ052
Local Info
Past Weather Observations for Today

NOTE: This archive is for the closest National Weather Service station to Omaha. Information may differ from the station used for current weather conditions.

Click here for Long-term Archive

Time Weather Temperature Dewpoint Humidity Pressure Winds Precip Visibility
21:52
Mostly Cloudy
63°F / 17°C 45°F / 7°C 52% 29.86 in
(1011 mb)
Calm - 10SM
20:52
Clear
63°F / 17°C 43°F / 6°C 49% 29.86 in
(1011 mb)
SSW 6.9 mph
(SSW 11 kph)
- 10SM
19:52
Partly Cloudy
64°F / 18°C 43°F / 6°C 46% 29.89 in
(1012 mb)
W 8.1 mph
(W 13 kph)
- 10SM
18:52
Partly Cloudy
68°F / 20°C 43°F / 6°C 40% 29.89 in
(1012 mb)
NW 10.4 mph
(NW 17 kph)
- 10SM
17:52
Mostly Cloudy
72°F / 22°C 43°F / 6°C 36% 29.89 in
(1012 mb)
WNW 12.7 mph
(WNW 20 kph)
- 10SM
16:52
Mostly Cloudy
72°F / 22°C 43°F / 6°C 36% 29.92 in
(1013 mb)
WNW 15 mph
(WNW 24 kph)
- 10SM
15:52
Mostly Cloudy
72°F / 22°C 41°F / 5°C 33% 29.95 in
(1014 mb)
WNW 19.6 mph
(WNW 32 kph)
- 10SM
14:52
Mostly Cloudy
72°F / 22°C 41°F / 5°C 33% 29.95 in
(1014 mb)
WNW 15 mph
(WNW 24 kph)
- 10SM
13:52
Mostly Cloudy
70°F / 21°C 41°F / 5°C 35% 29.98 in
(1015 mb)
SSW 12.7 mph
(SSW 20 kph)
- 10SM
12:52
Partly Cloudy
70°F / 21°C 43°F / 6°C 38% 30.01 in
(1016 mb)
NW 10.4 mph
(NW 17 kph)
- 10SM
11:52
Partly Cloudy
66°F / 19°C 41°F / 5°C 40% 30.04 in
(1017 mb)
W 5.8 mph
(W 9 kph)
- 10SM
10:52
Partly Cloudy
66°F / 19°C 39°F / 4°C 37% 30.04 in
(1017 mb)
NW 13.8 mph
(NW 22 kph)
- 10SM
09:52
Partly Cloudy
64°F / 18°C 41°F / 5°C 43% 30.06 in
(1018 mb)
WNW 9.2 mph
(WNW 15 kph)
- 10SM
08:52
Clear
59°F / 15°C 46°F / 8°C 63% 30.06 in
(1018 mb)
Calm - 10SM
07:52
Clear
54°F / 12°C 45°F / 7°C 72% 30.06 in
(1018 mb)
Calm - 10SM
06:52
Clear
50°F / 10°C 45°F / 7°C 82% 30.06 in
(1018 mb)
Calm - 10SM
05:52
Partly Cloudy
Fog
43°F / 6°C 41°F / 5°C 93% 30.06 in
(1018 mb)
SE 4.6 mph
(SE 7 kph)
- 10SM
04:52
Partly Cloudy
Fog
45°F / 7°C 41°F / 5°C 87% 30.04 in
(1017 mb)
SE 4.6 mph
(SE 7 kph)
- 10SM
03:52
Clear
45°F / 7°C 43°F / 6°C 93% 30.06 in
(1018 mb)
SE 3.5 mph
(SE 6 kph)
- 10SM
02:52
Clear
46°F / 8°C 43°F / 6°C 87% 30.06 in
(1018 mb)
SSE 3.5 mph
(SSE 6 kph)
- 10SM
01:52
Clear
45°F / 7°C 41°F / 5°C 87% 30.04 in
(1017 mb)
SE 4.6 mph
(SE 7 kph)
- 10SM
00:52
Partly Cloudy
46°F / 8°C 43°F / 6°C 87% 30.06 in
(1018 mb)
Calm - 10SM
Time Weather Temperature Dewpoint Humidity Pressure Winds Precip Visibility


Weather for websites

WeatherForYou.com, LLC is not responsible for any damages or problems caused by this service. Current weather conditions are obtained from the closest station including government and personal stations which may have varying degrees of accuracy. Weather forecasts are derived from the NOAA NDFD. Like all things, this site belongs to Jesus Christ... He just trusts us to maintain it. If you have any questions or comments email webmaster@weatherforyou.com

Copyright © 2016, WeatherForYou.com LLC. All rights reserved.